Showing default

FLOCK 4G 10, 62670

Orbit data source: Space-Track

FLOCK 4G 10, 62670 is a payload satellite owned by Planet (US) in SSO that was launched on Tue, 14 Jan 2025 UTC via an FALCON 9 launch vehicle from the Air Force Western Test Range (AFWTR). Payload-class satellites include a variety of spacecraft equipped with specific instruments for various scientific and technological missions. These include communications satellites like Starlink; space stations such as the ISS; scientific satellites like the Hubble; Earth observation satellites from companies like Planet Labs, Umbra, and HawkEye 360; GPS; miniature CubeSats for education and research; and military/defense satellites.

Loading next visibility...
Identifier
62670, 2025-009BP
Orbit
SSO
Country
Flag of USUS
Related business
Manufacturer
Planet
Mission
Operational Commercial Imaging
Bus & Motor
CUBESAT 3U, Unknown motor
Mass
5.7 kg wet, 5.7 kg dry
Launch date (UTC)
2025-01-14 (1 year ago)
Launch vehicle
FALCON 9
Launch site
Air Force Western Test Range (AFWTR)
Object type
Payload
Rocket body
Debris
Shape & HBR
Box + 2 Pan, 1.0 m
Radar Cross Section
0.072 m², Medium (>0.1 m² and < 1m²)

Expand to show TLE details & history
Last TLE update: 16 hours ago

TLE from 16 hours ago
0 FLOCK 4G 10
1 62670U 25009BP  26171.17599409  .00009144  00000-0  32374-3 0  9998
2 62670  97.3923 252.3043 0003170 340.3589  19.7529 15.29354160136995
Epoch: 2026-06-20T04:13Z
TLE epoch observation values (Epoch: 2026-06-20T04:13:25.889Z)
Latitude
0.00002°
Longitude
-79.44795°
Altitude
478.799 km
Speed
7.627 km/s
True Right ascension
16h 49m 13s
True Declination
0° 00' 00"
Sunlit
Object was in full shadow at epoch
Visualization orbit readout
Latitude
Unknown
Longitude
Unknown
Altitude
Unknown
Speed
Unknown
Apparent Right ascension
Unknown
Apparent Declination
Unknown
Sunlit
N/A
Visualization observer readout
Local Sidereal Time
07:23:37
Azimuth
Unknown
Elevation
Unknown
Doppler factor
Unknown
Orbital elements
Apogee altitude
476.867 km
Perigee altitude
472.522 km
Semi-major axis
6,852.832 km
Eccentricity
0.00032
Inclination
97.3923°
RAAN
252.3043°
Arg. of periapsis
340.3589°
True anomaly
19.76518°
Mean anomaly
19.7529°
Eccentric anomaly
19.75904°
Mean motion
3.82594 °/min
Orbital period
94.09 mins
BSTAR
0.00032374
Loading maneuver chart data...
Computing Atmospheric mass density...
Loading historical data...
Loading historical data...
Loading historical data...
Loading historical data...
Loading historical data...
Loading historical data...
Loading historical data...

Documentation

Showing up to 5 results
|